Location: Newark
(34.6283°N, 36.0776°E)
Time: 22:04:52
(UTC+00:00)

Tiros 1 despin weight - Pass Details

Date: 26 September 2019
Orbit: 594 x 643 km, 48.2° (Epoch: 15 October)

Event Time Altitude Azimuth Distance (km) Brightness Sun altitude
Rises 07:14:51 0° 238° (WSW) 2,915 ? 42.7°
Reaches altitude 10° 07:17:11 10° 241° (WSW) 2,003 ? 43.0°
Maximum altitude 07:21:47 69° 325° (NW) 670 ? 43.7°
Drops below altitude 10° 07:26:20 10° 48° (NE) 1,980 ? 44.4°
Sets 07:28:38 0° 51° (NE) 2,879 ? 44.7°
